Year,Month,Day,Hour,Minute,Value (Times are PST for temperature in C)
2017,05,27,00,00,13.20
2017,05,27,00,01,13.20
2017,05,27,00,02,13.10
2017,05,27,00,03,13.10
2017,05,27,00,04,13.10
2017,05,27,00,05,13.10
2017,05,27,00,06,13.10
2017,05,27,00,07,13.10
2017,05,27,00,08,13.10
2017,05,27,00,09,13.10
2017,05,27,00,10,13.10
2017,05,27,00,11,13.10
2017,05,27,00,12,13.10
2017,05,27,00,13,13.00
2017,05,27,00,14,13.00
2017,05,27,00,15,13.00
2017,05,27,00,16,12.90
2017,05,27,00,17,12.90
2017,05,27,00,18,12.90
2017,05,27,00,19,12.90
2017,05,27,00,20,12.80
2017,05,27,00,21,12.80
2017,05,27,00,22,12.80
2017,05,27,00,23,12.80
2017,05,27,00,24,12.80
2017,05,27,00,25,12.70
2017,05,27,00,26,12.70
2017,05,27,00,27,12.70
2017,05,27,00,28,12.70
2017,05,27,00,29,12.70
2017,05,27,00,30,12.60
2017,05,27,00,31,12.60
2017,05,27,00,32,12.60
2017,05,27,00,33,12.60
2017,05,27,00,34,12.60
2017,05,27,00,35,12.50
2017,05,27,00,36,12.50
2017,05,27,00,37,12.50
2017,05,27,00,38,12.40
2017,05,27,00,39,12.40
2017,05,27,00,40,12.40
2017,05,27,00,41,12.40
2017,05,27,00,42,12.40
2017,05,27,00,43,12.30
2017,05,27,00,44,12.30
2017,05,27,00,45,12.30
2017,05,27,00,46,12.30
2017,05,27,00,47,12.30
2017,05,27,00,48,12.30
2017,05,27,00,49,12.30
2017,05,27,00,50,12.20
2017,05,27,00,51,12.20
2017,05,27,00,52,12.20
2017,05,27,00,53,12.20
2017,05,27,00,54,12.10
2017,05,27,00,55,12.10
2017,05,27,00,56,12.10
2017,05,27,00,57,12.10
2017,05,27,00,58,12.10
2017,05,27,00,59,12.10
2017,05,27,01,00,12.00
2017,05,27,01,01,12.00
2017,05,27,01,02,12.00
2017,05,27,01,03,12.00
2017,05,27,01,04,12.00
2017,05,27,01,05,11.90
2017,05,27,01,06,11.90
2017,05,27,01,07,11.90
2017,05,27,01,08,11.90
2017,05,27,01,09,11.90
2017,05,27,01,10,11.90
2017,05,27,01,11,11.90
2017,05,27,01,12,11.80
2017,05,27,01,13,11.80
2017,05,27,01,14,11.80
2017,05,27,01,15,11.80
2017,05,27,01,16,11.80
2017,05,27,01,17,11.80
2017,05,27,01,18,11.80
2017,05,27,01,19,11.70
2017,05,27,01,20,11.70
2017,05,27,01,21,11.70
2017,05,27,01,22,11.70
2017,05,27,01,23,11.70
2017,05,27,01,24,11.70
2017,05,27,01,25,11.70
2017,05,27,01,26,11.70
2017,05,27,01,27,11.70
2017,05,27,01,28,11.70
2017,05,27,01,29,11.60
2017,05,27,01,30,11.60
2017,05,27,01,31,11.60
2017,05,27,01,32,11.60
2017,05,27,01,33,11.60
2017,05,27,01,34,11.60
2017,05,27,01,35,11.60
2017,05,27,01,36,11.60
2017,05,27,01,37,11.60
2017,05,27,01,38,11.60
2017,05,27,01,39,11.50
2017,05,27,01,40,11.50
2017,05,27,01,41,11.50
2017,05,27,01,42,11.50
2017,05,27,01,43,11.50
2017,05,27,01,44,11.40
2017,05,27,01,45,11.40
2017,05,27,01,46,11.40
2017,05,27,01,47,11.40
2017,05,27,01,48,11.40
2017,05,27,01,49,11.40
2017,05,27,01,50,11.30
2017,05,27,01,51,11.30
2017,05,27,01,52,11.30
2017,05,27,01,53,11.30
2017,05,27,01,54,11.30
2017,05,27,01,55,11.30
2017,05,27,01,56,11.30
2017,05,27,01,57,11.30
2017,05,27,01,58,11.30
2017,05,27,01,59,11.20
2017,05,27,02,00,11.20
2017,05,27,02,01,11.20
2017,05,27,02,02,11.20
2017,05,27,02,03,11.20
2017,05,27,02,04,11.20
2017,05,27,02,05,11.20
2017,05,27,02,06,11.20
2017,05,27,02,07,11.20
2017,05,27,02,08,11.20
2017,05,27,02,09,11.20
2017,05,27,02,10,11.10
2017,05,27,02,11,11.10
2017,05,27,02,12,11.10
2017,05,27,02,13,11.10
2017,05,27,02,14,11.10
2017,05,27,02,15,11.10
2017,05,27,02,16,11.10
2017,05,27,02,17,11.10
2017,05,27,02,18,11.00
2017,05,27,02,19,11.00
2017,05,27,02,20,11.00
2017,05,27,02,21,11.00
2017,05,27,02,22,11.00
2017,05,27,02,23,10.90
2017,05,27,02,24,10.90
2017,05,27,02,25,10.90
2017,05,27,02,26,10.90
2017,05,27,02,27,10.90
2017,05,27,02,28,10.90
2017,05,27,02,29,10.90
2017,05,27,02,30,10.90
2017,05,27,02,31,10.90
2017,05,27,02,32,10.90
2017,05,27,02,33,10.90
2017,05,27,02,34,10.90
2017,05,27,02,35,10.80
2017,05,27,02,36,10.80
2017,05,27,02,37,10.80
2017,05,27,02,38,10.80
2017,05,27,02,39,10.80
2017,05,27,02,40,10.80
2017,05,27,02,41,10.80
2017,05,27,02,42,10.80
2017,05,27,02,43,10.80
2017,05,27,02,44,10.80
2017,05,27,02,45,10.80
2017,05,27,02,46,10.80
2017,05,27,02,47,10.80
2017,05,27,02,48,10.80
2017,05,27,02,49,10.70
2017,05,27,02,50,10.70
2017,05,27,02,51,10.70
2017,05,27,02,52,10.70
2017,05,27,02,53,10.70
2017,05,27,02,54,10.70
2017,05,27,02,55,10.70
2017,05,27,02,56,10.70
2017,05,27,02,57,10.60
2017,05,27,02,58,10.60
2017,05,27,02,59,10.60
2017,05,27,03,00,10.60
2017,05,27,03,01,10.60
2017,05,27,03,02,10.60
2017,05,27,03,03,10.50
2017,05,27,03,04,10.50
2017,05,27,03,05,10.50
2017,05,27,03,06,10.50
2017,05,27,03,07,10.50
2017,05,27,03,08,10.50
2017,05,27,03,09,10.50
2017,05,27,03,10,10.40
2017,05,27,03,11,10.40
2017,05,27,03,12,10.40
2017,05,27,03,13,10.40
2017,05,27,03,14,10.40
2017,05,27,03,15,10.40
2017,05,27,03,16,10.40
2017,05,27,03,17,10.40
2017,05,27,03,18,10.30
2017,05,27,03,19,10.30
2017,05,27,03,20,10.30
2017,05,27,03,21,10.30
2017,05,27,03,22,10.30
2017,05,27,03,23,10.30
2017,05,27,03,24,10.30
2017,05,27,03,25,10.30
2017,05,27,03,26,10.30
2017,05,27,03,27,10.30
2017,05,27,03,28,10.30
2017,05,27,03,29,10.30
2017,05,27,03,30,10.30
2017,05,27,03,31,10.30
2017,05,27,03,32,10.30
2017,05,27,03,33,10.20
2017,05,27,03,34,10.20
2017,05,27,03,35,10.20
2017,05,27,03,36,10.20
2017,05,27,03,37,10.20
2017,05,27,03,38,10.20
2017,05,27,03,39,10.20
2017,05,27,03,40,10.20
2017,05,27,03,41,10.20
2017,05,27,03,42,10.20
2017,05,27,03,43,10.20
2017,05,27,03,44,10.20
2017,05,27,03,45,10.20
2017,05,27,03,46,10.20
2017,05,27,03,47,10.20
2017,05,27,03,48,10.20
2017,05,27,03,49,10.20
2017,05,27,03,50,10.10
2017,05,27,03,51,10.10
2017,05,27,03,52,10.10
2017,05,27,03,53,10.10
2017,05,27,03,54,10.10
2017,05,27,03,55,10.10
2017,05,27,03,56,10.10
2017,05,27,03,57,10.10
2017,05,27,03,58,10.10
2017,05,27,03,59,10.00
2017,05,27,04,00,10.00
2017,05,27,04,01,10.00
2017,05,27,04,02,10.00
2017,05,27,04,03,10.00
2017,05,27,04,04,9.90
2017,05,27,04,05,9.90
2017,05,27,04,06,9.90
2017,05,27,04,07,9.90
2017,05,27,04,08,9.90
2017,05,27,04,09,9.90
2017,05,27,04,10,9.90
2017,05,27,04,11,9.90
2017,05,27,04,12,9.80
2017,05,27,04,13,9.80
2017,05,27,04,14,9.80
2017,05,27,04,15,9.80
2017,05,27,04,16,9.80
2017,05,27,04,17,9.80
2017,05,27,04,18,9.80
2017,05,27,04,19,9.80
2017,05,27,04,20,9.80
2017,05,27,04,21,9.80
2017,05,27,04,22,9.80
2017,05,27,04,23,9.80
2017,05,27,04,24,9.80
2017,05,27,04,25,9.80
2017,05,27,04,26,9.80
2017,05,27,04,27,9.80
2017,05,27,04,28,9.80
2017,05,27,04,29,9.80
2017,05,27,04,30,9.80
2017,05,27,04,31,9.80
2017,05,27,04,32,9.70
2017,05,27,04,33,9.70
2017,05,27,04,34,9.70
2017,05,27,04,35,9.70
2017,05,27,04,36,9.70
2017,05,27,04,37,9.70
2017,05,27,04,38,9.70
2017,05,27,04,39,9.70
2017,05,27,04,40,9.70
2017,05,27,04,41,9.70
2017,05,27,04,42,9.60
2017,05,27,04,43,9.60
2017,05,27,04,44,9.60
2017,05,27,04,45,9.60
2017,05,27,04,46,9.60
2017,05,27,04,47,9.60
2017,05,27,04,48,9.60
2017,05,27,04,49,9.60
2017,05,27,04,50,9.60
2017,05,27,04,51,9.60
2017,05,27,04,52,9.70
2017,05,27,04,53,9.60
2017,05,27,04,54,9.60
2017,05,27,04,55,9.60
2017,05,27,04,56,9.60
2017,05,27,04,57,9.60
2017,05,27,04,58,9.60
2017,05,27,04,59,9.60
2017,05,27,05,00,9.60
2017,05,27,05,01,9.60
2017,05,27,05,02,9.60
2017,05,27,05,03,9.60
2017,05,27,05,04,9.60
2017,05,27,05,05,9.50
2017,05,27,05,06,9.50
2017,05,27,05,07,9.50
2017,05,27,05,08,9.50
2017,05,27,05,09,9.40
2017,05,27,05,10,9.40
2017,05,27,05,11,9.40
2017,05,27,05,12,9.40
2017,05,27,05,13,9.40
2017,05,27,05,14,9.40
2017,05,27,05,15,9.40
2017,05,27,05,16,9.40
2017,05,27,05,17,9.40
2017,05,27,05,18,9.40
2017,05,27,05,19,9.40
2017,05,27,05,20,9.40
2017,05,27,05,21,9.40
2017,05,27,05,22,9.40
2017,05,27,05,23,9.40
2017,05,27,05,24,9.40
2017,05,27,05,25,9.40
2017,05,27,05,26,9.30
2017,05,27,05,27,9.30
2017,05,27,05,28,9.40
2017,05,27,05,29,9.40
2017,05,27,05,30,9.40
2017,05,27,05,31,9.40
2017,05,27,05,32,9.40
2017,05,27,05,33,9.40
2017,05,27,05,34,9.40
2017,05,27,05,35,9.30
2017,05,27,05,36,9.30
2017,05,27,05,37,9.30
2017,05,27,05,38,9.30
2017,05,27,05,39,9.30
2017,05,27,05,40,9.30
2017,05,27,05,41,9.30
2017,05,27,05,42,9.30
2017,05,27,05,43,9.30
2017,05,27,05,44,9.30
2017,05,27,05,45,9.30
2017,05,27,05,46,9.30
2017,05,27,05,47,9.30
2017,05,27,05,48,9.30
2017,05,27,05,49,9.30
2017,05,27,05,50,9.30
2017,05,27,05,51,9.30
2017,05,27,05,52,9.30
2017,05,27,05,53,9.30
2017,05,27,05,54,9.30
2017,05,27,05,55,9.30
2017,05,27,05,56,9.30
2017,05,27,05,57,9.30
2017,05,27,05,58,9.30
2017,05,27,05,59,9.30
2017,05,27,06,00,9.30
2017,05,27,06,01,9.30
2017,05,27,06,02,9.40
2017,05,27,06,03,9.40
2017,05,27,06,04,9.40
2017,05,27,06,05,9.40
2017,05,27,06,06,9.40
2017,05,27,06,07,9.50
2017,05,27,06,08,9.50
2017,05,27,06,09,9.50
2017,05,27,06,10,9.50
2017,05,27,06,11,9.50
2017,05,27,06,12,9.50
2017,05,27,06,13,9.50
2017,05,27,06,14,9.50
2017,05,27,06,15,9.50
2017,05,27,06,16,9.50
2017,05,27,06,17,9.50
2017,05,27,06,18,9.50
2017,05,27,06,19,9.50
2017,05,27,06,20,9.50
2017,05,27,06,21,9.50
2017,05,27,06,22,9.50
2017,05,27,06,23,9.50
2017,05,27,06,24,9.50
2017,05,27,06,25,9.50
2017,05,27,06,26,9.50
2017,05,27,06,27,9.50
2017,05,27,06,28,9.50
2017,05,27,06,29,9.50
2017,05,27,06,30,9.60
2017,05,27,06,31,9.60
2017,05,27,06,32,9.60
2017,05,27,06,33,9.60
2017,05,27,06,34,9.60
2017,05,27,06,35,9.60
2017,05,27,06,36,9.70
2017,05,27,06,37,9.70
2017,05,27,06,38,9.80
2017,05,27,06,39,9.80
2017,05,27,06,40,9.90
2017,05,27,06,41,9.90
2017,05,27,06,42,10.00
2017,05,27,06,43,10.10
2017,05,27,06,44,10.20
2017,05,27,06,45,10.30
2017,05,27,06,46,10.30
2017,05,27,06,47,10.40
2017,05,27,06,48,10.40
2017,05,27,06,49,10.50
2017,05,27,06,50,10.50
2017,05,27,06,51,10.50
2017,05,27,06,52,10.60
2017,05,27,06,53,10.60
2017,05,27,06,54,10.60
2017,05,27,06,55,10.60
2017,05,27,06,56,10.70
2017,05,27,06,57,10.70
2017,05,27,06,58,10.80
2017,05,27,06,59,10.80
2017,05,27,07,00,10.90
2017,05,27,07,01,10.90
2017,05,27,07,02,11.00
2017,05,27,07,03,11.00
2017,05,27,07,04,11.10
2017,05,27,07,05,11.10
2017,05,27,07,06,11.10
2017,05,27,07,07,11.20
2017,05,27,07,08,11.20
2017,05,27,07,09,11.30
2017,05,27,07,10,11.30
2017,05,27,07,11,11.40
2017,05,27,07,12,11.40
2017,05,27,07,13,11.40
2017,05,27,07,14,11.50
2017,05,27,07,15,11.50
2017,05,27,07,16,11.50
2017,05,27,07,17,11.60
2017,05,27,07,18,11.60
2017,05,27,07,19,11.60
2017,05,27,07,20,11.70
2017,05,27,07,21,11.80
2017,05,27,07,22,11.80
2017,05,27,07,23,11.90
2017,05,27,07,24,12.00
2017,05,27,07,25,12.10
2017,05,27,07,26,12.10
2017,05,27,07,27,12.20
2017,05,27,07,28,12.30
2017,05,27,07,29,12.40
2017,05,27,07,30,12.50
2017,05,27,07,31,12.70
2017,05,27,07,32,12.80
2017,05,27,07,33,12.90
2017,05,27,07,34,13.00
2017,05,27,07,35,13.20
2017,05,27,07,36,13.30
2017,05,27,07,37,13.40
2017,05,27,07,38,13.50
2017,05,27,07,39,13.50
2017,05,27,07,40,13.70
2017,05,27,07,41,13.80
2017,05,27,07,42,14.00
2017,05,27,07,43,14.10
2017,05,27,07,44,14.30
2017,05,27,07,45,14.40
2017,05,27,07,46,14.50
2017,05,27,07,47,14.60
2017,05,27,07,48,14.80
2017,05,27,07,49,14.90
2017,05,27,07,50,15.00
2017,05,27,07,51,15.20
2017,05,27,07,52,15.30
2017,05,27,07,53,15.50
2017,05,27,07,54,15.70
2017,05,27,07,55,15.90
2017,05,27,07,56,16.00
2017,05,27,07,57,16.10
2017,05,27,07,58,16.20
2017,05,27,07,59,16.30
2017,05,27,08,00,16.40
2017,05,27,08,01,16.60
2017,05,27,08,02,16.70
2017,05,27,08,03,16.90
2017,05,27,08,04,17.00
2017,05,27,08,05,17.10
2017,05,27,08,06,17.30
2017,05,27,08,07,17.30
2017,05,27,08,08,17.40
2017,05,27,08,09,17.50
2017,05,27,08,10,17.60
2017,05,27,08,11,17.70
2017,05,27,08,12,17.70
2017,05,27,08,13,17.80
2017,05,27,08,14,17.90
2017,05,27,08,15,18.00
2017,05,27,08,16,18.10
2017,05,27,08,17,18.10
2017,05,27,08,18,18.20
2017,05,27,08,19,18.30
2017,05,27,08,20,18.30
2017,05,27,08,21,18.40
2017,05,27,08,22,18.50
2017,05,27,08,23,18.60
2017,05,27,08,24,18.70
2017,05,27,08,25,18.80
2017,05,27,08,26,18.90
2017,05,27,08,27,18.90
2017,05,27,08,28,19.00
2017,05,27,08,29,19.10
2017,05,27,08,30,19.10
2017,05,27,08,31,19.20
2017,05,27,08,32,19.20
2017,05,27,08,33,19.20
2017,05,27,08,34,19.20
2017,05,27,08,35,19.20
2017,05,27,08,36,19.20
2017,05,27,08,37,19.20
2017,05,27,08,38,19.20
2017,05,27,08,39,19.20
2017,05,27,08,40,19.20
2017,05,27,08,41,19.30
2017,05,27,08,42,19.30
2017,05,27,08,43,19.40
2017,05,27,08,44,19.50
2017,05,27,08,45,19.50
2017,05,27,08,46,19.60
2017,05,27,08,47,19.70
2017,05,27,08,48,19.70
2017,05,27,08,49,19.80
2017,05,27,08,50,19.90
2017,05,27,08,51,19.90
2017,05,27,08,52,20.00
2017,05,27,08,53,20.10
2017,05,27,08,54,20.20
2017,05,27,08,55,20.20
2017,05,27,08,56,20.20
2017,05,27,08,57,20.30
2017,05,27,08,58,20.30
2017,05,27,08,59,20.30
2017,05,27,09,00,20.40
2017,05,27,09,01,20.40
2017,05,27,09,02,20.40
2017,05,27,09,03,20.50
2017,05,27,09,04,20.60
2017,05,27,09,05,20.60
2017,05,27,09,06,20.70
2017,05,27,09,07,20.70
2017,05,27,09,08,20.70
2017,05,27,09,09,20.70
2017,05,27,09,10,20.70
2017,05,27,09,11,20.60
2017,05,27,09,12,20.60
2017,05,27,09,13,20.60
2017,05,27,09,14,20.60
2017,05,27,09,15,20.60
2017,05,27,09,16,20.60
2017,05,27,09,17,20.60
2017,05,27,09,18,20.50
2017,05,27,09,19,20.50
2017,05,27,09,20,20.50
2017,05,27,09,21,20.50
2017,05,27,09,22,20.50
2017,05,27,09,23,20.40
2017,05,27,09,24,20.40
2017,05,27,09,25,20.40
2017,05,27,09,26,20.50
2017,05,27,09,27,20.50
2017,05,27,09,28,20.60
2017,05,27,09,29,20.60
2017,05,27,09,30,20.60
2017,05,27,09,31,20.60
2017,05,27,09,32,20.70
2017,05,27,09,33,20.70
2017,05,27,09,34,20.80
2017,05,27,09,35,20.80
2017,05,27,09,36,20.90
2017,05,27,09,37,20.90
2017,05,27,09,38,20.90
2017,05,27,09,39,20.90
2017,05,27,09,40,20.90
2017,05,27,09,41,20.80
2017,05,27,09,42,20.80
2017,05,27,09,43,20.70
2017,05,27,09,44,20.70
2017,05,27,09,45,20.70
2017,05,27,09,46,20.70
2017,05,27,09,47,20.70
2017,05,27,09,48,20.70
2017,05,27,09,49,20.70
2017,05,27,09,50,20.70
2017,05,27,09,51,20.70
2017,05,27,09,52,20.70
2017,05,27,09,53,20.70
2017,05,27,09,54,20.70
2017,05,27,09,55,20.80
2017,05,27,09,56,20.90
2017,05,27,09,57,21.00
2017,05,27,09,58,21.00
2017,05,27,09,59,21.10
2017,05,27,10,00,21.20
2017,05,27,10,01,21.30
2017,05,27,10,02,21.30
2017,05,27,10,03,21.30
2017,05,27,10,04,21.40
2017,05,27,10,05,21.40
2017,05,27,10,06,21.40
2017,05,27,10,07,21.40
2017,05,27,10,08,21.40
2017,05,27,10,09,21.50
2017,05,27,10,10,21.60
2017,05,27,10,11,21.60
2017,05,27,10,12,21.60
2017,05,27,10,13,21.60
2017,05,27,10,14,21.60
2017,05,27,10,15,21.60
2017,05,27,10,16,21.60
2017,05,27,10,17,21.60
2017,05,27,10,18,21.60
2017,05,27,10,19,21.60
2017,05,27,10,20,21.50
2017,05,27,10,21,21.50
2017,05,27,10,22,21.50
2017,05,27,10,23,21.50
2017,05,27,10,24,21.40
2017,05,27,10,25,21.40
2017,05,27,10,26,21.40
2017,05,27,10,27,21.40
2017,05,27,10,28,21.40
2017,05,27,10,29,21.40
2017,05,27,10,30,21.40
2017,05,27,10,31,21.40
2017,05,27,10,32,21.50
2017,05,27,10,33,21.50
2017,05,27,10,34,21.50
2017,05,27,10,35,21.60
2017,05,27,10,36,21.50
2017,05,27,10,37,21.50
2017,05,27,10,38,21.50
2017,05,27,10,39,21.40
2017,05,27,10,40,21.40
2017,05,27,10,41,21.40
2017,05,27,10,42,21.40
2017,05,27,10,43,21.50
2017,05,27,10,44,21.50
2017,05,27,10,45,21.50
2017,05,27,10,46,21.60
2017,05,27,10,47,21.70
2017,05,27,10,48,21.70
2017,05,27,10,49,21.80
2017,05,27,10,50,21.90
2017,05,27,10,51,22.00
2017,05,27,10,52,22.00
2017,05,27,10,53,22.10
2017,05,27,10,54,22.20
2017,05,27,10,55,22.20
2017,05,27,10,56,22.30
2017,05,27,10,57,22.30
2017,05,27,10,58,22.40
2017,05,27,10,59,22.40
2017,05,27,11,00,22.40
2017,05,27,11,01,22.40
2017,05,27,11,02,22.50
2017,05,27,11,03,22.60
2017,05,27,11,04,22.60
2017,05,27,11,05,22.70
2017,05,27,11,06,22.70
2017,05,27,11,07,22.70
2017,05,27,11,08,22.70
2017,05,27,11,09,22.70
2017,05,27,11,10,22.80
2017,05,27,11,11,22.80
2017,05,27,11,12,22.80
2017,05,27,11,13,22.90
2017,05,27,11,14,22.90
2017,05,27,11,15,22.90
2017,05,27,11,16,22.90
2017,05,27,11,17,23.00
2017,05,27,11,18,23.00
2017,05,27,11,19,23.10
2017,05,27,11,20,23.10
2017,05,27,11,21,23.20
2017,05,27,11,22,23.20
2017,05,27,11,23,23.20
2017,05,27,11,24,23.20
2017,05,27,11,25,23.30
2017,05,27,11,26,23.30
2017,05,27,11,27,23.30
2017,05,27,11,28,23.30
2017,05,27,11,29,23.40
2017,05,27,11,30,23.40
2017,05,27,11,31,23.40
2017,05,27,11,32,23.50
2017,05,27,11,33,23.50
2017,05,27,11,34,23.60
2017,05,27,11,35,23.60
2017,05,27,11,36,23.60
2017,05,27,11,37,23.70
2017,05,27,11,38,23.70
2017,05,27,11,39,23.80
2017,05,27,11,40,23.80
2017,05,27,11,41,23.80
2017,05,27,11,42,23.80
2017,05,27,11,43,23.80
2017,05,27,11,44,23.80
2017,05,27,11,45,23.80
2017,05,27,11,46,23.80
2017,05,27,11,47,23.80
2017,05,27,11,48,23.80
2017,05,27,11,49,23.80
2017,05,27,11,50,23.80
2017,05,27,11,51,23.80
2017,05,27,11,52,23.80
2017,05,27,11,53,23.90
2017,05,27,11,54,23.90
2017,05,27,11,55,23.90
2017,05,27,11,56,24.00
2017,05,27,11,57,24.10
2017,05,27,11,58,24.20
2017,05,27,11,59,24.30
2017,05,27,12,00,24.30
2017,05,27,12,01,24.40
2017,05,27,12,02,24.50
2017,05,27,12,03,24.60
2017,05,27,12,04,24.60
2017,05,27,12,05,24.60
2017,05,27,12,06,24.50
2017,05,27,12,07,24.40
2017,05,27,12,08,24.30
2017,05,27,12,09,24.20
2017,05,27,12,10,24.00
2017,05,27,12,11,23.90
2017,05,27,12,12,23.90
2017,05,27,12,13,24.00
2017,05,27,12,14,24.00
2017,05,27,12,15,24.10
2017,05,27,12,16,24.10
2017,05,27,12,17,24.10
2017,05,27,12,18,24.00
2017,05,27,12,19,23.90
2017,05,27,12,20,23.80
2017,05,27,12,21,23.80
2017,05,27,12,22,23.70
2017,05,27,12,23,23.70
2017,05,27,12,24,23.60
2017,05,27,12,25,23.60
2017,05,27,12,26,23.70
2017,05,27,12,27,23.80
2017,05,27,12,28,23.90
2017,05,27,12,29,23.90
2017,05,27,12,30,23.90
2017,05,27,12,31,23.90
2017,05,27,12,32,23.90
2017,05,27,12,33,23.80
2017,05,27,12,34,23.80
2017,05,27,12,35,23.80
2017,05,27,12,36,23.90
2017,05,27,12,37,23.90
2017,05,27,12,38,23.90
2017,05,27,12,39,24.00
2017,05,27,12,40,24.00
2017,05,27,12,41,24.00
2017,05,27,12,42,24.00
2017,05,27,12,43,24.10
2017,05,27,12,44,24.10
2017,05,27,12,45,24.10
2017,05,27,12,46,24.10
2017,05,27,12,47,24.10
2017,05,27,12,48,24.20
2017,05,27,12,49,24.10
2017,05,27,12,50,24.10
2017,05,27,12,51,24.00
2017,05,27,12,52,24.00
2017,05,27,12,53,24.10
2017,05,27,12,54,24.10
2017,05,27,12,55,24.20
2017,05,27,12,56,24.30
2017,05,27,12,57,24.30
2017,05,27,12,58,24.40
2017,05,27,12,59,24.50
2017,05,27,13,00,24.60
2017,05,27,13,01,24.70
2017,05,27,13,02,24.80
2017,05,27,13,03,24.90
2017,05,27,13,04,24.90
2017,05,27,13,05,24.90
2017,05,27,13,06,25.00
2017,05,27,13,07,25.00
2017,05,27,13,08,25.00
2017,05,27,13,09,25.10
2017,05,27,13,10,25.10
2017,05,27,13,11,25.10
2017,05,27,13,12,25.10
2017,05,27,13,13,25.10
2017,05,27,13,14,25.10
2017,05,27,13,15,25.10
2017,05,27,13,16,25.00
2017,05,27,13,17,25.10
2017,05,27,13,18,25.10
2017,05,27,13,19,25.10
2017,05,27,13,20,25.10
2017,05,27,13,21,25.10
2017,05,27,13,22,25.10
2017,05,27,13,23,25.10
2017,05,27,13,24,25.10
2017,05,27,13,25,25.10
2017,05,27,13,26,25.10
2017,05,27,13,27,25.20
2017,05,27,13,28,25.20
2017,05,27,13,29,25.20
2017,05,27,13,30,25.20
2017,05,27,13,31,25.30
2017,05,27,13,32,25.30
2017,05,27,13,33,25.30
2017,05,27,13,34,25.30
2017,05,27,13,35,25.40
2017,05,27,13,36,25.40
2017,05,27,13,37,25.40
2017,05,27,13,38,25.50
2017,05,27,13,39,25.50
2017,05,27,13,40,25.60
2017,05,27,13,41,25.60
2017,05,27,13,42,25.60
2017,05,27,13,43,25.70
2017,05,27,13,44,25.70
2017,05,27,13,45,25.70
2017,05,27,13,46,25.70
2017,05,27,13,47,25.70
2017,05,27,13,48,25.60
2017,05,27,13,49,25.60
2017,05,27,13,50,25.60
2017,05,27,13,51,25.60
2017,05,27,13,52,25.60
2017,05,27,13,53,25.60
2017,05,27,13,54,25.70
2017,05,27,13,55,25.70
2017,05,27,13,56,25.80
2017,05,27,13,57,25.90
2017,05,27,13,58,26.00
2017,05,27,13,59,26.00
2017,05,27,14,00,26.00
2017,05,27,14,01,26.10
2017,05,27,14,02,26.10
2017,05,27,14,03,26.10
2017,05,27,14,04,26.20
2017,05,27,14,05,26.20
2017,05,27,14,06,26.10
2017,05,27,14,07,26.10
2017,05,27,14,08,26.10
2017,05,27,14,09,26.10
2017,05,27,14,10,26.10
2017,05,27,14,11,26.10
2017,05,27,14,12,26.10
2017,05,27,14,13,26.10
2017,05,27,14,14,26.20
2017,05,27,14,15,26.30
2017,05,27,14,16,26.30
2017,05,27,14,17,26.40
2017,05,27,14,18,26.40
2017,05,27,14,19,26.50
2017,05,27,14,20,26.50
2017,05,27,14,21,26.50
2017,05,27,14,22,26.50
2017,05,27,14,23,26.60
2017,05,27,14,24,26.60
2017,05,27,14,25,26.60
2017,05,27,14,26,26.70
2017,05,27,14,27,26.70
2017,05,27,14,28,26.60
2017,05,27,14,29,26.50
2017,05,27,14,30,26.50
2017,05,27,14,31,26.50
2017,05,27,14,32,26.50
2017,05,27,14,33,26.50
2017,05,27,14,34,26.60
2017,05,27,14,35,26.60
2017,05,27,14,36,26.60
2017,05,27,14,37,26.60
2017,05,27,14,38,26.60
2017,05,27,14,39,26.70
2017,05,27,14,40,26.70
2017,05,27,14,41,26.70
2017,05,27,14,42,26.70
2017,05,27,14,43,26.70
2017,05,27,14,44,26.70
2017,05,27,14,45,26.70
2017,05,27,14,46,26.80
2017,05,27,14,47,26.80
2017,05,27,14,48,26.90
2017,05,27,14,49,26.90
2017,05,27,14,50,26.90
2017,05,27,14,51,26.80
2017,05,27,14,52,26.60
2017,05,27,14,53,26.50
2017,05,27,14,54,26.40
2017,05,27,14,55,26.40
2017,05,27,14,56,26.30
2017,05,27,14,57,26.40
2017,05,27,14,58,26.40
2017,05,27,14,59,26.40
2017,05,27,15,00,26.40
2017,05,27,15,01,26.50
2017,05,27,15,02,26.60
2017,05,27,15,03,26.60
2017,05,27,15,04,26.70
2017,05,27,15,05,26.70
2017,05,27,15,06,26.70
2017,05,27,15,07,26.80
2017,05,27,15,08,27.00
2017,05,27,15,09,27.10
2017,05,27,15,10,27.20
2017,05,27,15,11,27.30
2017,05,27,15,12,27.40
2017,05,27,15,13,27.40
2017,05,27,15,14,27.30
2017,05,27,15,15,27.20
2017,05,27,15,16,27.00
2017,05,27,15,17,26.90
2017,05,27,15,18,26.90
2017,05,27,15,19,26.80
2017,05,27,15,20,26.70
2017,05,27,15,21,26.70
2017,05,27,15,22,26.70
2017,05,27,15,23,26.80
2017,05,27,15,24,26.80
2017,05,27,15,25,26.80
2017,05,27,15,26,26.60
2017,05,27,15,27,26.50
2017,05,27,15,28,26.40
2017,05,27,15,29,26.30
2017,05,27,15,30,26.30
2017,05,27,15,31,26.30
2017,05,27,15,32,26.30
2017,05,27,15,33,26.20
2017,05,27,15,34,26.10
2017,05,27,15,35,26.10
2017,05,27,15,36,26.10
2017,05,27,15,37,26.10
2017,05,27,15,38,26.10
2017,05,27,15,39,26.10
2017,05,27,15,40,26.10
2017,05,27,15,41,26.10
2017,05,27,15,42,26.00
2017,05,27,15,43,26.00
2017,05,27,15,44,26.00
2017,05,27,15,45,26.00
2017,05,27,15,46,26.10
2017,05,27,15,47,26.10
2017,05,27,15,48,26.20
2017,05,27,15,49,26.20
2017,05,27,15,50,26.20
2017,05,27,15,51,26.20
2017,05,27,15,52,26.20
2017,05,27,15,53,26.20
2017,05,27,15,54,26.20
2017,05,27,15,55,26.20
2017,05,27,15,56,26.20
2017,05,27,15,57,26.20
2017,05,27,15,58,26.10
2017,05,27,15,59,26.10
2017,05,27,16,00,26.20
2017,05,27,16,01,26.20
2017,05,27,16,02,26.20
2017,05,27,16,03,26.20
2017,05,27,16,04,26.20
2017,05,27,16,05,26.30
2017,05,27,16,06,26.40
2017,05,27,16,07,26.50
2017,05,27,16,08,26.60
2017,05,27,16,09,26.70
2017,05,27,16,10,26.70
2017,05,27,16,11,26.80
2017,05,27,16,12,26.90
2017,05,27,16,13,26.90
2017,05,27,16,14,27.00
2017,05,27,16,15,27.10
2017,05,27,16,16,27.10
2017,05,27,16,17,27.10
2017,05,27,16,18,27.10
2017,05,27,16,19,27.10
2017,05,27,16,20,27.10
2017,05,27,16,21,27.10
2017,05,27,16,22,27.00
2017,05,27,16,23,26.90
2017,05,27,16,24,26.90
2017,05,27,16,25,27.00
2017,05,27,16,26,27.00
2017,05,27,16,27,26.90
2017,05,27,16,28,26.90
2017,05,27,16,29,27.00
2017,05,27,16,30,27.00
2017,05,27,16,31,27.10
2017,05,27,16,32,27.00
2017,05,27,16,33,27.00
2017,05,27,16,34,26.90
2017,05,27,16,35,26.90
2017,05,27,16,36,26.90
2017,05,27,16,37,27.00
2017,05,27,16,38,27.00
2017,05,27,16,39,26.90
2017,05,27,16,40,26.80
2017,05,27,16,41,26.70
2017,05,27,16,42,26.60
2017,05,27,16,43,26.60
2017,05,27,16,44,26.50
2017,05,27,16,45,26.50
2017,05,27,16,46,26.50
2017,05,27,16,47,26.60
2017,05,27,16,48,26.60
2017,05,27,16,49,26.60
2017,05,27,16,50,26.50
2017,05,27,16,51,26.50
2017,05,27,16,52,26.50
2017,05,27,16,53,26.60
2017,05,27,16,54,26.60
2017,05,27,16,55,26.60
2017,05,27,16,56,26.70
2017,05,27,16,57,26.70
2017,05,27,16,58,26.70
2017,05,27,16,59,26.70
2017,05,27,17,00,26.70
2017,05,27,17,01,26.70
2017,05,27,17,02,26.80
2017,05,27,17,03,26.90
2017,05,27,17,04,26.90
2017,05,27,17,05,26.90
2017,05,27,17,06,26.90
2017,05,27,17,07,26.90
2017,05,27,17,08,26.90
2017,05,27,17,09,26.90
2017,05,27,17,10,26.90
2017,05,27,17,11,27.00
2017,05,27,17,12,27.10
2017,05,27,17,13,27.10
2017,05,27,17,14,27.20
2017,05,27,17,15,27.20
2017,05,27,17,16,27.30
2017,05,27,17,17,27.30
2017,05,27,17,18,27.30
2017,05,27,17,19,27.20
2017,05,27,17,20,27.10
2017,05,27,17,21,27.10
2017,05,27,17,22,27.10
2017,05,27,17,23,27.10
2017,05,27,17,24,27.10
2017,05,27,17,25,27.10
2017,05,27,17,26,27.10